[[{"header":{"parameterUnit":"m.s-1","parameterCategory":1,"la1":30.2991,"la2":30.254,"lo1":-89.0895,"lo2":-89.0444,"dy":0.0017,"dx":0.0017,"nx":28,"ny":28,"refTime":"2025-04-16T03:00:00:Z","depth":0,"parameterNumber":2,"parameterNumberName":"U-component_of_WINDS"},"data":[0,0,0,0,0,0,0,0,0,0,0,0,0,0,0,0,0,0,0,0,0,0,0,0,0,0,0,0,0,0,0,0,0,0,0,0,0,0,0,0,0,0,0,0,0,0,0,0,0,0,0,0,0,0,0,0,0,0,-3.8371,-3.8372,0,-3.8459,-3.846,-3.8461,-3.8437,-3.8435,-3.8433,-3.8432,-3.8519,-3.8523,-3.8527,0,0,0,0,0,0,0,0,0,0,0,0,0,-3.8183,-3.8186,-3.8371,-3.8372,-3.8373,-3.8458,-3.846,-3.8461,-3.8437,-3.8435,-3.8433,-3.8431,-3.8518,-3.8523,-3.8527,0,0,0,0,0,0,0,0,0,0,0,0,0,-3.8267,-3.8188,-3.8371,-3.8372,-3.8373,-3.8458,-3.846,-3.8461,-3.8438,-3.8435,-3.8432,-3.843,-3.8516,-3.8522,-3.8528,-3.8617,0,0,-3.8546,-3.8549,0,0,0,0,0,0,0,0,-3.8262,-3.8274,-3.837,-3.8372,-3.8373,-3.8434,-3.8425,-3.8513,-3.8438,-3.8413,-3.8432,-3.8429,-3.8493,-3.8501,-3.8523,-3.8621,-3.8625,-3.8547,-3.855,-3.8553,-3.8554,0,0,0,0,0,0,0,-3.8256,-3.827,-3.8405,-3.8372,-3.8373,-3.8368,-3.8377,-3.8442,-3.8466,-3.8415,-3.8413,-3.8424,-3.8493,-3.8517,-3.8525,-3.8626,-3.8546,-3.8552,-3.8555,-3.8558,-3.8805,-3.8808,0,0,0,0,0,0,-3.825,-3.8265,-3.8403,-3.8408,-3.831,-3.8373,-3.8383,-3.8417,-3.8466,-3.8471,-3.8426,-3.8423,-3.8508,-3.8518,-3.8528,-3.8636,-3.8553,-3.8558,-3.8562,-3.8802,-3.8806,-3.8809,0,0,0,0,0,0,-3.8246,-3.8262,-3.8399,-3.8336,-3.8353,-3.8379,-3.8417,-3.842,-3.8444,-3.8474,-3.8478,-3.8446,-3.8506,-3.8519,-3.8596,-3.8639,-3.8561,-3.8566,-3.8799,-3.8803,-3.8807,-3.8854,0,0,0,0,0,0,-3.824,-3.8261,-3.8295,-3.8337,-3.8357,-3.8466,-3.842,-3.8424,-3.8455,-3.8451,-3.8494,-3.8499,-3.8505,-3.8587,-3.8602,-3.8646,-3.8571,-3.8795,-3.8801,-3.8806,-3.8848,-3.8859,-3.8869,0,0,0,0,0,-3.8234,-3.8303,-3.8297,-3.8313,-3.84,-3.8468,-3.848,-3.8486,-3.8458,-3.8493,-3.8513,-3.8497,-3.8632,-3.8595,-3.8611,-3.8658,-3.8792,-3.8799,-3.8805,-3.8844,-3.8857,-3.8868,0,0,0,0,0,0,-3.8263,-3.8309,-3.8302,-3.8387,-3.8425,-3.8464,-3.8508,-3.85,-3.8545,-3.8539,-3.8545,-3.8555,-3.8634,-3.8654,-3.8611,-3.8748,-3.8708,-3.8718,-3.8732,-3.8745,-3.8754,-3.8747,-3.8576,0,0,0,0,0,-3.828,-3.8333,-3.8369,-3.8441,-3.8461,-3.8481,-3.8511,-3.8514,-3.8552,-3.8567,-3.8592,-3.863,-3.8681,-3.8714,-3.8762,-3.8852,-3.8862,-3.8892,-3.8902,-3.891,-3.8919,-3.8969,-3.8984,-3.8831,-3.8831,-3.8831,0,0,-3.8315,-3.8346,-3.8378,-3.8448,-3.8477,-3.8531,-3.8494,-3.8552,-3.8593,-3.8576,-3.865,-3.867,-3.8713,-3.8797,-3.8835,-3.8815,-3.8964,-3.8919,-3.8925,-3.8929,-3.8978,-3.8992,-3.9005,-3.8836,-3.8835,-3.8834,0,0,-3.8405,-3.8435,-3.8498,-3.8529,-3.8574,-3.8588,-3.8604,-3.8646,-3.8659,-3.8734,-3.8723,-3.8771,-3.8858,-3.889,-3.8917,-3.9023,-3.9011,-3.9039,-3.9091,-3.914,-3.9152,-3.9163,-3.9201,-3.9215,-3.9048,-3.9048,-3.9048,0,-3.8442,-3.8524,-3.8532,-3.8592,-3.8623,-3.8613,-3.8678,-3.8707,-3.8765,-3.8787,-3.8765,-3.8877,-3.8904,-3.8996,-3.9022,-3.9045,-3.9063,-3.9033,-3.915,-3.9161,-3.9171,-3.9207,-3.9222,-3.9051,-3.905,-3.905,-3.905,0,-3.8567,-3.8624,-3.867,-3.8729,-3.8766,-3.8828,-3.8846,-3.8882,-3.8882,-3.8899,-3.8976,-3.901,-3.9066,-3.9088,-3.9088,-3.9181,-3.9168,-3.9148,-3.9108,-3.9188,-3.9223,-3.9237,-3.9055,-3.9054,-3.9053,-3.9052,0,0,-3.8676,-3.8741,-3.8757,-3.8785,-3.8835,-3.8879,-3.8942,-3.8998,-3.903,-3.9071,-3.9124,-3.92,-3.9183,-3.9214,-3.9218,-3.9261,-3.9345,-3.9237,-3.9238,-3.9255,-3.945,-3.9464,-3.948,-3.9338,-3.9341,-3.9343,-3.9446,0,-3.8771,-3.8881,-3.8892,-3.8991,-3.9044,-3.9037,-3.9092,-3.9129,-3.9147,-3.9195,-3.9215,-3.9269,-3.9242,-3.9261,-3.9304,-3.9325,-3.9384,-3.9318,-3.9387,-3.9389,-3.9375,-3.9498,-3.9512,-3.9608,-3.946,-3.9462,-3.9464,0,-3.8895,-3.8942,-3.9047,-3.9093,-3.9116,-3.9165,-3.9218,-3.9264,-3.9307,-3.9317,-3.9354,-3.9353,-3.9418,-3.9377,-3.9468,-3.9423,-3.9452,-3.9468,-3.9472,-3.9477,-3.943,-3.9506,-3.9639,-3.9653,-3.9485,-3.9483,-3.9482,0,-3.8964,-3.9054,-3.9129,-3.9152,-3.9207,-3.9242,-3.9267,-3.9307,-3.9341,-3.9388,-3.941,-3.9464,-3.9493,-3.9535,-3.9549,-3.9518,-3.9639,-3.9599,-3.9649,-3.9649,-3.9674,-3.9672,-3.9812,-3.9694,-3.9694,-3.9694,-3.9693,0,-3.9068,-3.9132,-3.916,-3.9206,-3.9279,-3.9292,-3.9363,-3.9386,-3.9423,-3.9473,-3.947,-3.9518,-3.9534,-3.9584,-3.9596,-3.9669,-3.9683,-3.9693,-3.9695,-3.9692,-3.9691,-3.971,-3.9704,-3.9698,-3.9697,-3.9696,-3.9695,0,-3.9156,-3.9177,-3.9258,-3.9305,-3.9319,-3.937,-3.941,-3.9455,-3.9474,-3.9538,-3.9553,-3.9583,-3.9642,-3.9661,-3.9732,-3.974,-3.9826,-3.9823,-3.9812,-3.9812,-3.9861,-3.9856,-4.0018,-4.004,-3.9909,-3.991,-3.9911,0,-3.922,-3.927,-3.9323,-3.9357,-3.9383,-3.9438,-3.9474,-3.9489,-3.9526,-3.9581,-3.9619,-3.9678,-3.9726,-3.9822,-3.985,-3.9905,-3.9902,-3.9956,-3.991,-3.9907,-3.9903,-3.9899,-3.9905,-3.9963,-3.9965,-3.9966,-3.9967,0,-3.9332,-3.9341,-3.9392,-3.9448,-3.9491,-3.9536,-3.9578,-3.9607,-3.9628,-3.967,-3.9732,-3.977,-3.9844,-3.9903,-3.996,-3.9986,-3.998,-3.9981,-3.9996,-3.9993,-3.9985,-3.999,-3.9834,-3.9977,-3.9976,-3.9975,-3.9974,-3.9974,-3.941,-3.9454,-3.9499,-3.9557,-3.9592,-3.9633,-3.9678,-3.9703,-3.9755,-3.9818,-3.9824,-3.9891,-3.9935,-4.0011,-4.004,-4.0092,-4.0077,-4.0098,-4.0103,-4.0108,-4.0112,-3.9978,-4.0103,-4.0103,-4.0102,-4.0102,-4.0102,0,-3.9521,-3.9551,-3.9604,-3.9665,-3.9712,-3.9705,-3.9753,-3.9791,-3.985,-3.9893,-3.9941,-4.0013,-4.0071,-4.0105,-4.0163,-4.0199,-4.0198,-4.0214,-4.0211,-4.0217,-4.0122,-4.0104,-4.0214,-4.0214,-4.0214,-4.0214,-4.0214,-4.0214,-3.9585,-3.966,-3.9675,-3.9768,-3.9797,-3.9864,-3.9892,-3.993,-3.9964,-4.0045,-4.0094,-4.0116,-4.0155,-4.0217,-4.0271,-4.0279,-4.0301,-4.0318,-4.0325,-4.0235,-4.0223,-4.0212,-4.0195,-4.0323,-4.0323,-4.0415,-4.0416,-4.0417]},{"header":{"parameterUnit":"m.s-1","parameterCategory":1,"la1":30.2991,"la2":30.254,"lo1":-89.0895,"lo2":-89.0444,"dy":0.0017,"dx":0.0017,"nx":28,"ny":28,"refTime":"2025-04-16T03:00:00:Z","depth":0,"parameterNumber":3,"parameterNumberName":"V-component_of_WINDS"},"data":[0,0,0,0,0,0,0,0,0,0,0,0,0,0,0,0,0,0,0,0,0,0,0,0,0,0,0,0,0,0,0,0,0,0,0,0,0,0,0,0,0,0,0,0,0,0,0,0,0,0,0,0,0,0,0,0,0,0,2.6099,2.6098,0,2.5994,2.5993,2.5991,2.5928,2.5928,2.5928,2.5927,2.5813,2.5811,2.5808,0,0,0,0,0,0,0,0,0,0,0,0,0,2.6242,2.624,2.6099,2.6098,2.6097,2.5994,2.5992,2.5991,2.5928,2.5928,2.5927,2.5927,2.5814,2.5811,2.5808,0,0,0,0,0,0,0,0,0,0,0,0,0,2.6163,2.6239,2.6099,2.6053,2.6048,2.5994,2.5992,2.5991,2.5928,2.5928,2.5927,2.5927,2.5815,2.5811,2.5807,2.579,0,0,2.5794,2.5793,0,0,0,0,0,0,0,0,2.6167,2.6157,2.6061,2.6056,2.605,2.5974,2.6001,2.5923,2.5928,2.5973,2.5927,2.5927,2.5867,2.5858,2.5839,2.5784,2.5779,2.5794,2.5791,2.579,2.5788,0,0,0,0,0,0,0,2.6173,2.6161,2.6057,2.606,2.6053,2.6036,2.6024,2.5986,2.5923,2.5969,2.5965,2.5953,2.5863,2.5843,2.5836,2.5778,2.5794,2.579,2.5788,2.5786,2.5705,2.5706,0,0,0,0,0,0,2.6186,2.6166,2.6061,2.6054,2.6109,2.6034,2.6021,2.5999,2.5924,2.5912,2.5954,2.5951,2.5851,2.5841,2.5832,2.5807,2.579,2.5786,2.5783,2.5705,2.5705,2.5706,0,0,0,0,0,0,2.619,2.6177,2.6065,2.6109,2.6093,2.6032,2.6008,2.5997,2.5976,2.5912,2.59,2.5945,2.585,2.5838,2.5801,2.5802,2.5784,2.578,2.5704,2.5705,2.5705,2.5758,0,0,0,0,0,0,2.6194,2.6179,2.6172,2.6109,2.6091,2.6038,2.6008,2.5995,2.597,2.5965,2.59,2.5889,2.5849,2.5808,2.5797,2.5796,2.5777,2.5704,2.5705,2.5705,2.5756,2.576,2.5764,0,0,0,0,0,2.6199,2.619,2.6172,2.616,2.6082,2.6038,2.6027,2.5982,2.5971,2.5963,2.5922,2.5891,2.5805,2.5805,2.5792,2.579,2.5704,2.5704,2.5705,2.5754,2.5759,2.5764,0,0,0,0,0,0,2.6251,2.618,2.616,2.6131,2.6091,2.6027,2.6016,2.5989,2.595,2.5947,2.5892,2.5877,2.5847,2.5815,2.5816,2.577,2.5751,2.5749,2.5792,2.5797,2.5801,2.5808,2.5773,0,0,0,0,0,2.626,2.6232,2.617,2.615,2.6131,2.6078,2.6056,2.6026,2.5982,2.5964,2.592,2.5877,2.584,2.5817,2.5779,2.5752,2.5737,2.5744,2.5748,2.5752,2.575,2.5735,2.5737,2.5708,2.5708,2.5708,0,0,2.6276,2.6234,2.6219,2.6159,2.6125,2.6096,2.6064,2.6033,2.6011,2.5959,2.5923,2.5889,2.5838,2.5806,2.579,2.5778,2.5756,2.5753,2.5756,2.5753,2.5736,2.5739,2.5741,2.5709,2.5709,2.5709,0,0,2.6291,2.6256,2.6236,2.6204,2.6153,2.6118,2.6114,2.6055,2.6031,2.5995,2.5956,2.5928,2.5865,2.583,2.5804,2.581,2.578,2.5799,2.582,2.5805,2.5807,2.5809,2.5811,2.5813,2.5799,2.5799,2.5799,0,2.6316,2.6272,2.6228,2.6202,2.6177,2.6132,2.6111,2.608,2.602,2.6003,2.5992,2.5914,2.5876,2.5836,2.5838,2.5819,2.5811,2.5805,2.5811,2.5812,2.5813,2.5815,2.5816,2.5801,2.5801,2.5801,2.5801,0,2.6307,2.6277,2.6267,2.6213,2.6187,2.6163,2.6114,2.6093,2.6066,2.6032,2.5996,2.5949,2.5902,2.5891,2.5862,2.5848,2.5842,2.5822,2.5801,2.582,2.582,2.582,2.5805,2.5804,2.5803,2.5803,0,0,2.6348,2.6273,2.627,2.6246,2.6189,2.6164,2.6139,2.6095,2.6078,2.6039,2.6015,2.5965,2.5947,2.5918,2.5886,2.5873,2.5881,2.5854,2.5852,2.586,2.5863,2.5878,2.5879,2.5862,2.5862,2.5862,2.5867,0,2.6354,2.6308,2.6269,2.6237,2.6209,2.6168,2.6145,2.6108,2.6076,2.6047,2.6011,2.5976,2.5955,2.5937,2.5923,2.5883,2.5881,2.5882,2.5839,2.5838,2.5852,2.5879,2.5895,2.5902,2.5867,2.5867,2.5867,0,2.6354,2.632,2.6286,2.6234,2.6221,2.6202,2.616,2.6133,2.6089,2.6067,2.6037,2.6004,2.5975,2.5959,2.5917,2.5919,2.5899,2.5878,2.5877,2.587,2.5853,2.5873,2.5903,2.5904,2.5867,2.5867,2.5867,0,2.6389,2.6333,2.6306,2.6287,2.6225,2.6213,2.6186,2.6143,2.612,2.6083,2.6068,2.6027,2.6005,2.5974,2.5931,2.5923,2.5894,2.5874,2.5874,2.5875,2.5868,2.5869,2.5895,2.5857,2.5857,2.5857,2.5857,0,2.6399,2.6379,2.6321,2.6304,2.6281,2.6237,2.6215,2.6185,2.6147,2.6123,2.6084,2.6062,2.6007,2.5978,2.5945,2.5916,2.5906,2.5886,2.5877,2.5889,2.5892,2.5874,2.5873,2.5857,2.5857,2.5857,2.5857,0,2.6432,2.6392,2.636,2.6306,2.6292,2.6278,2.6231,2.6213,2.618,2.615,2.6141,2.6089,2.6053,2.6009,2.5957,2.5935,2.591,2.5896,2.5925,2.5919,2.5922,2.5922,2.5937,2.5936,2.59,2.5901,2.5901,0,2.6441,2.6425,2.6371,2.6354,2.6329,2.6301,2.6278,2.6235,2.6213,2.6164,2.6152,2.6114,2.6081,2.6026,2.5983,2.5944,2.5929,2.5937,2.5923,2.5936,2.5929,2.593,2.5929,2.594,2.5941,2.5941,2.5942,0,2.646,2.6442,2.6413,2.6377,2.6352,2.6321,2.6288,2.6275,2.6225,2.6202,2.6167,2.6142,2.6092,2.6055,2.6011,2.5982,2.5953,2.5947,2.5945,2.5956,2.5974,2.5965,2.5934,2.5946,2.5946,2.5946,2.5945,2.5945,2.6481,2.6466,2.6427,2.6395,2.6367,2.6338,2.6319,2.6286,2.6256,2.6214,2.619,2.6155,2.6113,2.6053,2.6026,2.5997,2.5986,2.5983,2.5982,2.5982,2.5986,2.598,2.5989,2.5989,2.5989,2.5988,2.5988,0,2.6499,2.6472,2.6444,2.6401,2.6377,2.6355,2.6318,2.6299,2.627,2.6235,2.6205,2.6165,2.6129,2.6085,2.6046,2.6032,2.6018,2.6023,2.6023,2.6017,2.5998,2.6003,2.6036,2.6036,2.6036,2.6036,2.6036,2.6036,2.6505,2.6479,2.6457,2.6417,2.639,2.6358,2.6339,2.6312,2.6284,2.6242,2.6213,2.6186,2.6147,2.6106,2.6072,2.606,2.6047,2.6057,2.604,2.6023,2.6018,2.6014,2.6019,2.6054,2.6054,2.6062,2.6062,2.6062]}]]